,,PressureMeas_1m,,PRMeasQMR101_1,,RHStat155_1m_1,,SRMeasQMS101R_1m,,TAStat155_1m_1,,GenWind_1,,GenWind_1,
2019-01-21, 00:00:06,VALID,919.651,VALID,0.0,VALID,97.487,VALID,0.01,VALID,20.382,VALID,7.0,VALID,0.743,
2019-01-21, 00:01:06,VALID,919.637,VALID,0.0,VALID,97.836,VALID,0.017,VALID,20.374,VALID,71.0,VALID,0.238,
2019-01-21, 00:02:06,VALID,919.642,VALID,0.0,VALID,98.019,VALID,0.018,VALID,20.365,VALID,219.0,VALID,0.642,
2019-01-21, 00:03:06,VALID,919.624,VALID,0.0,VALID,98.151,VALID,0.006,VALID,20.372,VALID,269.0,VALID,0.449,
2019-01-21, 00:04:06,VALID,919.607,VALID,0.0,VALID,98.232,VALID,0.018,VALID,20.36,VALID,29.0,VALID,0.632,
2019-01-21, 00:05:06,VALID,919.582,VALID,0.0,VALID,98.281,VALID,0.008,VALID,20.343,VALID,54.0,VALID,0.185,
2019-01-21, 00:06:06,VALID,919.575,VALID,0.0,VALID,98.328,VALID,0.016,VALID,20.325,VALID,68.0,VALID,0.472,
2019-01-21, 00:07:06,VALID,919.569,VALID,0.0,VALID,98.293,VALID,0.026,VALID,20.307,VALID,45.0,VALID,0.114,
2019-01-21, 00:08:06,VALID,919.536,VALID,0.0,VALID,98.226,VALID,0.017,VALID,20.298,VALID,324.0,VALID,1.012,
2019-01-21, 00:09:06,VALID,919.507,VALID,0.0,VALID,98.157,VALID,0.027,VALID,20.311,VALID,6.0,VALID,0.971,
2019-01-21, 00:10:06,VALID,919.495,VALID,0.0,VALID,98.112,VALID,0.008,VALID,20.312,VALID,126.0,VALID,0.083,
2019-01-21, 00:11:06,VALID,919.492,VALID,0.0,VALID,98.163,VALID,0.013,VALID,20.314,INVALID,360.0,VALID,0.0,
2019-01-21, 00:12:06,VALID,919.481,VALID,0.0,VALID,98.22,VALID,0.028,VALID,20.314,INVALID,360.0,VALID,0.0,
2019-01-21, 00:13:06,VALID,919.468,VALID,0.0,VALID,98.249,VALID,0.037,VALID,20.285,INVALID,360.0,VALID,0.0,
2019-01-21, 00:14:06,VALID,919.454,VALID,0.0,VALID,98.324,VALID,0.042,VALID,20.291,INVALID,360.0,VALID,0.0,
2019-01-21, 00:15:06,VALID,919.464,VALID,0.0,VALID,98.457,VALID,0.048,VALID,20.331,INVALID,360.0,VALID,0.0,
2019-01-21, 00:16:06,VALID,919.45,VALID,0.0,VALID,98.479,VALID,0.042,VALID,20.317,VALID,48.0,VALID,0.0,
2019-01-21, 00:17:06,VALID,919.449,VALID,0.0,VALID,98.521,VALID,0.053,VALID,20.326,VALID,52.0,VALID,0.0,
2019-01-21, 00:18:06,VALID,919.443,VALID,0.0,VALID,98.534,VALID,0.055,VALID,20.293,VALID,69.0,VALID,0.0,
2019-01-21, 00:19:06,VALID,919.423,VALID,0.0,VALID,98.479,VALID,0.047,VALID,20.241,VALID,11.0,VALID,0.0,
2019-01-21, 00:20:06,VALID,919.425,VALID,0.0,VALID,98.482,VALID,0.042,VALID,20.209,VALID,22.0,VALID,0.0,
2019-01-21, 00:21:06,VALID,919.421,VALID,0.0,VALID,98.595,VALID,0.042,VALID,20.238,VALID,48.0,VALID,0.0,
2019-01-21, 00:22:06,VALID,919.418,VALID,0.0,VALID,98.578,VALID,0.035,VALID,20.23,VALID,36.0,VALID,0.0,
2019-01-21, 00:23:06,VALID,919.416,VALID,0.0,VALID,98.614,VALID,0.039,VALID,20.249,VALID,28.0,VALID,0.0,
2019-01-21, 00:24:06,VALID,919.404,VALID,0.0,VALID,98.59,VALID,0.042,VALID,20.213,VALID,6.0,VALID,0.0,
2019-01-21, 00:25:06,VALID,919.399,VALID,0.0,VALID,98.551,VALID,0.046,VALID,20.162,VALID,6.0,VALID,0.0,
2019-01-21, 00:26:06,VALID,919.385,VALID,0.0,VALID,98.555,VALID,0.047,VALID,20.145,VALID,19.0,VALID,0.0,
2019-01-21, 00:27:06,VALID,919.375,VALID,0.0,VALID,98.577,VALID,0.026,VALID,20.147,VALID,2.0,VALID,0.0,
2019-01-21, 00:28:06,VALID,919.373,VALID,0.0,VALID,98.554,VALID,0.038,VALID,20.138,VALID,16.0,VALID,0.0,
2019-01-21, 00:29:06,VALID,919.371,VALID,0.0,VALID,98.624,VALID,0.021,VALID,20.166,VALID,16.0,VALID,0.0,
2019-01-21, 00:30:06,VALID,919.378,VALID,0.0,VALID,98.635,VALID,0.028,VALID,20.18,VALID,15.0,VALID,0.0,
2019-01-21, 00:31:06,VALID,919.368,VALID,0.0,VALID,98.684,VALID,0.027,VALID,20.222,VALID,14.0,VALID,0.0,
2019-01-21, 00:32:06,VALID,919.346,VALID,0.0,VALID,98.69,VALID,0.032,VALID,20.217,VALID,14.0,VALID,0.0,
2019-01-21, 00:33:06,VALID,919.338,VALID,0.0,VALID,98.724,VALID,0.025,VALID,20.221,VALID,28.0,VALID,0.0,
2019-01-21, 00:34:06,VALID,919.352,VALID,0.0,VALID,98.678,VALID,0.022,VALID,20.195,VALID,32.0,VALID,0.0,
2019-01-21, 00:35:06,VALID,919.348,VALID,0.0,VALID,98.628,VALID,0.036,VALID,20.145,VALID,28.0,VALID,0.0,
2019-01-21, 00:36:06,VALID,919.33,VALID,0.0,VALID,98.604,VALID,0.013,VALID,20.126,VALID,18.0,VALID,0.0,
2019-01-21, 00:37:06,VALID,919.342,VALID,0.0,VALID,98.622,VALID,0.012,VALID,20.129,VALID,20.0,VALID,0.0,
2019-01-21, 00:38:06,VALID,919.323,VALID,0.0,VALID,98.62,VALID,0.015,VALID,20.144,VALID,25.0,VALID,0.0,
2019-01-21, 00:39:06,VALID,919.306,VALID,0.0,VALID,98.592,VALID,0.037,VALID,20.136,VALID,23.0,VALID,0.0,
2019-01-21, 00:40:06,VALID,919.295,VALID,0.0,VALID,98.62,VALID,0.02,VALID,20.138,VALID,30.0,VALID,0.0,
2019-01-21, 00:41:06,VALID,919.318,VALID,0.0,VALID,98.588,VALID,0.025,VALID,20.123,INVALID,360.0,VALID,0.0,
2019-01-21, 00:42:06,VALID,919.322,VALID,0.0,VALID,98.591,VALID,0.037,VALID,20.117,INVALID,360.0,VALID,0.0,
2019-01-21, 00:43:06,VALID,919.337,VALID,0.0,VALID,98.586,VALID,0.035,VALID,20.106,VALID,359.0,VALID,0.0,
2019-01-21, 00:44:06,VALID,919.305,VALID,0.0,VALID,98.566,VALID,0.029,VALID,20.083,VALID,18.0,VALID,0.0,
2019-01-21, 00:45:06,VALID,919.296,VALID,0.0,VALID,98.572,VALID,-0.009,VALID,20.078,INVALID,360.0,VALID,0.0,
2019-01-21, 00:46:06,VALID,919.287,VALID,0.0,VALID,98.534,VALID,0.012,VALID,20.06,INVALID,360.0,VALID,0.0,
2019-01-21, 00:47:06,VALID,919.279,VALID,0.0,VALID,98.528,VALID,0.023,VALID,20.057,INVALID,360.0,VALID,0.0,
2019-01-21, 00:48:06,VALID,919.242,VALID,0.0,VALID,98.496,VALID,0.001,VALID,20.05,INVALID,360.0,VALID,0.0,
2019-01-21, 00:49:06,VALID,919.229,VALID,0.0,VALID,98.477,VALID,0.009,VALID,20.062,INVALID,360.0,VALID,0.0,
2019-01-21, 00:50:06,VALID,919.219,VALID,0.0,VALID,98.501,VALID,0.014,VALID,20.102,INVALID,360.0,VALID,0.0,
2019-01-21, 00:51:06,VALID,919.181,VALID,0.0,VALID,98.495,VALID,0.014,VALID,20.093,INVALID,360.0,VALID,0.0,
2019-01-21, 00:52:06,VALID,919.164,VALID,0.0,VALID,98.427,VALID,0.006,VALID,20.066,INVALID,360.0,VALID,0.0,
2019-01-21, 00:53:06,VALID,919.152,VALID,0.0,VALID,98.414,VALID,0.013,VALID,20.067,INVALID,360.0,VALID,0.0,
2019-01-21, 00:54:06,VALID,919.154,VALID,0.0,VALID,98.364,VALID,0.023,VALID,20.057,INVALID,360.0,VALID,0.0,
2019-01-21, 00:55:06,VALID,919.148,VALID,0.0,VALID,98.427,VALID,0.019,VALID,20.089,INVALID,360.0,VALID,0.0,
2019-01-21, 00:56:06,VALID,919.134,VALID,0.0,VALID,98.439,VALID,0.023,VALID,20.071,VALID,2.0,VALID,0.0,
2019-01-21, 00:57:06,VALID,919.128,VALID,0.0,VALID,98.417,VALID,0.006,VALID,20.035,VALID,10.0,VALID,0.0,
2019-01-21, 00:58:06,VALID,919.128,VALID,0.0,VALID,98.419,VALID,0.012,VALID,20.011,VALID,8.0,VALID,0.0,
2019-01-21, 00:59:06,VALID,919.126,VALID,0.0,VALID,98.47,VALID,0.007,VALID,20.013,VALID,29.0,VALID,0.0,
2019-01-21, 01:00:06,VALID,919.119,VALID,0.0,VALID,98.503,VALID,0.021,VALID,20.012,VALID,1.0,VALID,0.0,
2019-01-21, 01:01:06,VALID,919.128,VALID,0.0,VALID,98.521,VALID,0.005,VALID,20.004,VALID,352.0,VALID,0.0,
2019-01-21, 01:02:06,VALID,919.108,VALID,0.0,VALID,98.549,VALID,-0.003,VALID,19.998,VALID,348.0,VALID,0.0,
2019-01-21, 01:03:06,VALID,919.108,VALID,0.0,VALID,98.593,VALID,-0.001,VALID,19.996,VALID,360.0,VALID,0.0,
2019-01-21, 01:04:06,VALID,919.083,VALID,0.0,VALID,98.629,VALID,0.005,VALID,20.008,VALID,23.0,VALID,0.0,
2019-01-21, 01:05:06,VALID,919.094,VALID,0.0,VALID,98.7,VALID,0.001,VALID,20.047,VALID,21.0,VALID,0.0,
2019-01-21, 01:06:06,VALID,919.1,VALID,0.0,VALID,98.665,VALID,0.001,VALID,20.036,VALID,18.0,VALID,0.0,
2019-01-21, 01:07:06,VALID,919.094,VALID,0.0,VALID,98.7,VALID,0.026,VALID,20.037,VALID,14.0,VALID,0.0,
2019-01-21, 01:08:06,VALID,919.096,VALID,0.0,VALID,98.706,VALID,-0.009,VALID,20.046,VALID,13.0,VALID,0.0,
2019-01-21, 01:09:06,VALID,919.1,VALID,0.0,VALID,98.72,VALID,0.013,VALID,20.04,VALID,12.0,VALID,0.0,
2019-01-21, 01:10:06,VALID,919.096,VALID,0.0,VALID,98.705,VALID,0.017,VALID,20.012,VALID,360.0,VALID,0.0,
2019-01-21, 01:11:06,VALID,919.089,VALID,0.0,VALID,98.724,VALID,0.002,VALID,20.006,VALID,337.0,VALID,0.0,
2019-01-21, 01:12:06,VALID,919.081,VALID,0.0,VALID,98.749,VALID,0.017,VALID,20.009,VALID,340.0,VALID,0.0,
2019-01-21, 01:13:06,VALID,919.067,VALID,0.0,VALID,98.787,VALID,0.018,VALID,20.025,VALID,340.0,VALID,0.0,
2019-01-21, 01:14:06,VALID,919.05,VALID,0.0,VALID,98.787,VALID,0.016,VALID,20.04,VALID,340.0,VALID,0.0,
2019-01-21, 01:15:06,VALID,919.041,VALID,0.0,VALID,98.817,VALID,0.018,VALID,20.049,VALID,340.0,VALID,0.0,
2019-01-21, 01:16:06,VALID,919.022,VALID,0.0,VALID,98.833,VALID,0.015,VALID,20.071,VALID,340.0,VALID,0.0,
2019-01-21, 01:17:06,VALID,919.011,VALID,0.0,VALID,98.84,VALID,-0.002,VALID,20.095,VALID,340.0,VALID,0.0,
2019-01-21, 01:18:06,VALID,919.01,VALID,0.0,VALID,98.848,VALID,-0.001,VALID,20.087,VALID,340.0,VALID,0.0,
2019-01-21, 01:19:06,VALID,919.007,VALID,0.0,VALID,98.813,VALID,0.016,VALID,20.071,VALID,340.0,VALID,0.0,
2019-01-21, 01:20:06,VALID,918.999,VALID,0.0,VALID,98.844,VALID,0.034,VALID,20.084,VALID,340.0,VALID,0.0,
2019-01-21, 01:21:06,VALID,918.984,VALID,0.0,VALID,98.84,VALID,0.04,VALID,20.08,VALID,340.0,VALID,0.0,
2019-01-21, 01:22:06,VALID,918.986,VALID,0.0,VALID,98.819,VALID,0.015,VALID,20.052,VALID,340.0,VALID,0.0,
2019-01-21, 01:23:06,VALID,918.983,VALID,0.0,VALID,98.825,VALID,0.012,VALID,20.053,VALID,6.0,VALID,0.0,
2019-01-21, 01:24:06,VALID,918.971,VALID,0.0,VALID,98.857,VALID,0.034,VALID,20.076,VALID,41.0,VALID,0.0,
2019-01-21, 01:25:06,VALID,918.955,VALID,0.0,VALID,98.852,VALID,0.024,VALID,20.078,VALID,41.0,VALID,0.0,
2019-01-21, 01:26:06,VALID,918.935,VALID,0.0,VALID,98.838,VALID,0.008,VALID,20.073,VALID,142.0,VALID,0.0,
2019-01-21, 01:27:06,VALID,918.926,VALID,0.0,VALID,98.848,VALID,0.019,VALID,20.052,VALID,151.0,VALID,0.0,
2019-01-21, 01:28:06,VALID,918.912,VALID,0.0,VALID,98.813,VALID,0.027,VALID,20.008,VALID,151.0,VALID,0.0,
2019-01-21, 01:29:06,VALID,918.891,VALID,0.0,VALID,98.804,VALID,0.026,VALID,19.993,VALID,151.0,VALID,0.0,
2019-01-21, 01:30:06,VALID,918.892,VALID,0.0,VALID,98.821,VALID,0.03,VALID,19.998,VALID,151.0,VALID,0.0,
2019-01-21, 01:31:06,VALID,918.877,VALID,0.0,VALID,98.809,VALID,0.025,VALID,19.988,VALID,151.0,VALID,0.0,
2019-01-21, 01:32:06,VALID,918.87,VALID,0.0,VALID,98.832,VALID,0.032,VALID,20.01,VALID,151.0,VALID,0.0,
2019-01-21, 01:33:06,VALID,918.855,VALID,0.0,VALID,98.814,VALID,0.024,VALID,19.991,VALID,126.0,VALID,0.0,
2019-01-21, 01:34:06,VALID,918.845,VALID,0.0,VALID,98.808,VALID,0.028,VALID,19.982,VALID,79.0,VALID,0.0,
2019-01-21, 01:35:06,VALID,918.832,VALID,0.0,VALID,98.807,VALID,0.006,VALID,19.974,VALID,76.0,VALID,0.0,
2019-01-21, 01:36:06,VALID,918.824,VALID,0.0,VALID,98.798,VALID,0.026,VALID,19.959,VALID,76.0,VALID,0.0,
2019-01-21, 01:37:06,VALID,918.813,VALID,0.0,VALID,98.79,VALID,0.036,VALID,19.947,VALID,76.0,VALID,0.0,
2019-01-21, 01:38:06,VALID,918.783,VALID,0.0,VALID,98.808,VALID,0.041,VALID,19.943,VALID,77.0,VALID,0.0,
2019-01-21, 01:39:06,VALID,918.771,VALID,0.0,VALID,98.808,VALID,0.046,VALID,19.941,VALID,71.0,VALID,0.0,
2019-01-21, 01:40:06,VALID,918.786,VALID,0.0,VALID,98.764,VALID,0.024,VALID,19.913,VALID,71.0,VALID,0.0,
2019-01-21, 01:41:06,VALID,918.757,VALID,0.0,VALID,98.731,VALID,0.027,VALID,19.89,VALID,71.0,VALID,0.0,
2019-01-21, 01:42:06,VALID,918.75,VALID,0.0,VALID,98.742,VALID,0.011,VALID,19.882,VALID,74.0,VALID,0.0,
2019-01-21, 01:43:06,VALID,918.715,VALID,0.0,VALID,98.748,VALID,0.008,VALID,19.875,VALID,79.0,VALID,0.0,
2019-01-21, 01:44:06,VALID,918.721,VALID,0.0,VALID,98.753,VALID,0.018,VALID,19.88,VALID,77.0,VALID,0.0,
2019-01-21, 01:45:06,VALID,918.707,VALID,0.0,VALID,98.765,VALID,0.024,VALID,19.881,VALID,85.0,VALID,0.0,
2019-01-21, 01:46:06,VALID,918.675,VALID,0.0,VALID,98.748,VALID,0.005,VALID,19.866,VALID,87.0,VALID,0.0,
2019-01-21, 01:47:06,VALID,918.662,VALID,0.0,VALID,98.738,VALID,0.024,VALID,19.861,VALID,89.0,VALID,0.0,
2019-01-21, 01:48:06,VALID,918.647,VALID,0.0,VALID,98.725,VALID,0.019,VALID,19.861,VALID,103.0,VALID,0.0,
2019-01-21, 01:49:06,VALID,918.633,VALID,0.0,VALID,98.736,VALID,0.026,VALID,19.86,VALID,99.0,VALID,0.0,
2019-01-21, 01:50:06,VALID,918.604,VALID,0.0,VALID,98.72,VALID,0.023,VALID,19.856,VALID,108.0,VALID,0.0,
2019-01-21, 01:51:06,VALID,918.574,VALID,0.0,VALID,98.715,VALID,0.004,VALID,19.849,VALID,105.0,VALID,0.0,
2019-01-21, 01:52:06,VALID,918.561,VALID,0.0,VALID,98.7,VALID,0.003,VALID,19.843,VALID,102.0,VALID,0.0,
2019-01-21, 01:53:06,VALID,918.537,VALID,0.0,VALID,98.715,VALID,0.023,VALID,19.849,VALID,95.0,VALID,0.0,
2019-01-21, 01:54:06,VALID,918.525,VALID,0.0,VALID,98.736,VALID,0.027,VALID,19.868,VALID,91.0,VALID,0.0,
2019-01-21, 01:55:06,VALID,918.507,VALID,0.0,VALID,98.75,VALID,0.026,VALID,19.875,VALID,91.0,VALID,0.0,
2019-01-21, 01:56:06,VALID,918.498,VALID,0.0,VALID,98.75,VALID,0.017,VALID,19.876,VALID,92.0,VALID,0.0,
2019-01-21, 01:57:06,VALID,918.488,VALID,0.0,VALID,98.759,VALID,0.013,VALID,19.871,VALID,98.0,VALID,0.0,
2019-01-21, 01:58:06,VALID,918.463,VALID,0.0,VALID,98.77,VALID,0.002,VALID,19.87,VALID,97.0,VALID,0.0,
2019-01-21, 01:59:06,VALID,918.457,VALID,0.0,VALID,98.796,VALID,0.006,VALID,19.871,VALID,99.0,VALID,0.0,
2019-01-21, 02:00:06,VALID,918.439,VALID,0.0,VALID,98.817,VALID,0.011,VALID,19.881,VALID,104.0,VALID,0.0,
2019-01-21, 02:01:06,VALID,918.417,VALID,0.0,VALID,98.836,VALID,-0.003,VALID,19.887,VALID,110.0,VALID,0.0,
2019-01-21, 02:02:06,VALID,918.387,VALID,0.0,VALID,98.84,VALID,0.002,VALID,19.892,VALID,105.0,VALID,0.0,
2019-01-21, 02:03:06,VALID,918.374,VALID,0.0,VALID,98.844,VALID,0.012,VALID,19.899,VALID,116.0,VALID,0.0,
2019-01-21, 02:04:06,VALID,918.348,VALID,0.0,VALID,98.847,VALID,-0.015,VALID,19.894,VALID,118.0,VALID,0.0,
2019-01-21, 02:05:06,VALID,918.322,VALID,0.0,VALID,98.859,VALID,0.004,VALID,19.893,VALID,119.0,VALID,0.023,
2019-01-21, 02:06:06,VALID,918.276,VALID,0.0,VALID,98.872,VALID,0.019,VALID,19.894,VALID,118.0,VALID,1.79,
2019-01-21, 02:07:06,VALID,918.253,VALID,0.0,VALID,98.873,VALID,0.004,VALID,19.89,VALID,116.0,VALID,1.607,
2019-01-21, 02:08:06,VALID,918.242,VALID,0.0,VALID,98.869,VALID,-0.012,VALID,19.888,VALID,118.0,VALID,1.271,
2019-01-21, 02:09:06,VALID,918.229,VALID,0.0,VALID,98.876,VALID,0.018,VALID,19.889,VALID,114.0,VALID,1.734,
2019-01-21, 02:10:06,VALID,918.217,VALID,0.0,VALID,98.879,VALID,-0.009,VALID,19.881,VALID,116.0,VALID,1.806,
2019-01-21, 02:11:06,VALID,918.241,VALID,0.0,VALID,98.882,VALID,-0.001,VALID,19.888,VALID,119.0,VALID,1.773,
2019-01-21, 02:12:06,VALID,918.234,VALID,0.0,VALID,98.906,VALID,-0.007,VALID,19.891,VALID,109.0,VALID,1.381,
2019-01-21, 02:13:06,VALID,918.225,VALID,0.0,VALID,98.901,VALID,0.023,VALID,19.894,VALID,113.0,VALID,1.554,
2019-01-21, 02:14:06,VALID,918.212,VALID,0.0,VALID,98.89,VALID,0.006,VALID,19.882,VALID,114.0,VALID,1.582,
2019-01-21, 02:15:06,VALID,918.212,VALID,0.0,VALID,98.917,VALID,0.007,VALID,19.879,VALID,118.0,VALID,1.416,
2019-01-21, 02:16:06,VALID,918.193,VALID,0.0,VALID,98.899,VALID,-0.007,VALID,19.885,VALID,112.0,VALID,1.609,
2019-01-21, 02:17:06,VALID,918.197,VALID,0.0,VALID,98.91,VALID,0.016,VALID,19.881,VALID,113.0,VALID,1.369,
2019-01-21, 02:18:06,VALID,918.181,VALID,0.0,VALID,98.9,VALID,0.017,VALID,19.885,VALID,103.0,VALID,1.15,
2019-01-21, 02:19:06,VALID,918.18,VALID,0.0,VALID,98.93,VALID,0.005,VALID,19.892,VALID,121.0,VALID,1.034,
2019-01-21, 02:20:06,VALID,918.165,VALID,0.0,VALID,98.905,VALID,0.005,VALID,19.892,VALID,111.0,VALID,1.207,
2019-01-21, 02:21:06,VALID,918.152,VALID,0.0,VALID,98.901,VALID,0.007,VALID,19.883,VALID,120.0,VALID,0.83,
2019-01-21, 02:22:06,VALID,918.138,VALID,0.0,VALID,98.894,VALID,-0.005,VALID,19.883,VALID,121.0,VALID,1.337,
2019-01-21, 02:23:06,VALID,918.111,VALID,0.0,VALID,98.898,VALID,-0.003,VALID,19.877,VALID,116.0,VALID,1.264,
2019-01-21, 02:24:06,VALID,918.115,VALID,0.0,VALID,98.88,VALID,0.003,VALID,19.873,VALID,119.0,VALID,1.353,
2019-01-21, 02:25:06,VALID,918.116,VALID,0.0,VALID,98.9,VALID,0.015,VALID,19.889,VALID,129.0,VALID,1.244,
2019-01-21, 02:26:06,VALID,918.111,VALID,0.0,VALID,98.899,VALID,0.012,VALID,19.908,VALID,130.0,VALID,0.828,
2019-01-21, 02:27:06,VALID,918.106,VALID,0.0,VALID,98.902,VALID,-0.019,VALID,19.916,VALID,128.0,VALID,0.579,
2019-01-21, 02:28:06,VALID,918.099,VALID,0.0,VALID,98.867,VALID,-0.008,VALID,19.909,VALID,114.0,VALID,1.059,
2019-01-21, 02:29:06,VALID,918.077,VALID,0.0,VALID,98.868,VALID,-0.002,VALID,19.906,VALID,125.0,VALID,0.803,
2019-01-21, 02:30:06,VALID,918.074,VALID,0.0,VALID,98.855,VALID,-0.012,VALID,19.902,VALID,126.0,VALID,0.286,
2019-01-21, 02:31:06,VALID,918.065,VALID,0.0,VALID,98.875,VALID,-0.009,VALID,19.909,VALID,118.0,VALID,0.0,
2019-01-21, 02:32:06,VALID,918.043,VALID,0.0,VALID,98.868,VALID,-0.008,VALID,19.914,VALID,127.0,VALID,0.0,
2019-01-21, 02:33:06,VALID,918.038,VALID,0.0,VALID,98.889,VALID,-0.001,VALID,19.937,VALID,124.0,VALID,0.0,
2019-01-21, 02:34:06,VALID,918.007,VALID,0.0,VALID,98.879,VALID,-0.013,VALID,19.918,VALID,124.0,VALID,0.0,
2019-01-21, 02:35:06,VALID,917.993,VALID,0.0,VALID,98.851,VALID,0.008,VALID,19.904,VALID,120.0,VALID,0.778,
2019-01-21, 02:36:07,VALID,917.963,VALID,0.0,VALID,98.808,VALID,-0.001,VALID,19.874,VALID,118.0,VALID,1.245,
2019-01-21, 02:37:07,VALID,917.947,VALID,0.0,VALID,98.794,VALID,0.001,VALID,19.868,VALID,114.0,VALID,1.434,
2019-01-21, 02:38:07,VALID,917.926,VALID,0.0,VALID,98.742,VALID,-0.005,VALID,19.858,VALID,116.0,VALID,0.958,
2019-01-21, 02:39:07,VALID,917.913,VALID,0.0,VALID,98.7,VALID,-0.01,VALID,19.843,VALID,111.0,VALID,1.325,
2019-01-21, 02:40:07,VALID,917.905,VALID,0.0,VALID,98.633,VALID,-0.007,VALID,19.834,VALID,115.0,VALID,1.277,
2019-01-21, 02:41:07,VALID,917.893,VALID,0.0,VALID,98.562,VALID,-0.021,VALID,19.84,VALID,119.0,VALID,1.286,
2019-01-21, 02:42:07,VALID,917.879,VALID,0.0,VALID,98.498,VALID,0.048,VALID,19.854,VALID,116.0,VALID,1.399,
2019-01-21, 02:43:07,VALID,917.867,VALID,0.0,VALID,98.447,VALID,0.028,VALID,19.855,VALID,117.0,VALID,1.501,
2019-01-21, 02:44:07,VALID,917.848,VALID,0.0,VALID,98.409,VALID,0.034,VALID,19.863,VALID,114.0,VALID,1.325,
2019-01-21, 02:45:07,VALID,917.842,VALID,0.0,VALID,98.382,VALID,0.037,VALID,19.863,VALID,117.0,VALID,1.119,
2019-01-21, 02:46:07,VALID,917.827,VALID,0.0,VALID,98.39,VALID,0.015,VALID,19.867,VALID,111.0,VALID,1.277,
2019-01-21, 02:47:07,VALID,917.827,VALID,0.0,VALID,98.396,VALID,0.034,VALID,19.86,VALID,108.0,VALID,1.465,
2019-01-21, 02:48:07,VALID,917.81,VALID,0.0,VALID,98.433,VALID,0.037,VALID,19.859,VALID,100.0,VALID,1.459,
2019-01-21, 02:49:07,VALID,917.783,VALID,0.0,VALID,98.45,VALID,0.046,VALID,19.862,VALID,96.0,VALID,1.748,
2019-01-21, 02:50:07,VALID,917.773,VALID,0.0,VALID,98.44,VALID,0.02,VALID,19.852,VALID,104.0,VALID,1.295,
2019-01-21, 02:51:07,VALID,917.747,VALID,0.0,VALID,98.445,VALID,0.04,VALID,19.845,VALID,103.0,VALID,1.443,
2019-01-21, 02:52:07,VALID,917.721,VALID,0.0,VALID,98.454,VALID,0.048,VALID,19.844,VALID,97.0,VALID,1.658,
2019-01-21, 02:53:07,VALID,917.695,VALID,0.0,VALID,98.456,VALID,0.036,VALID,19.834,VALID,104.0,VALID,1.163,
2019-01-21, 02:54:07,VALID,917.694,VALID,0.0,VALID,98.427,VALID,0.036,VALID,19.826,VALID,102.0,VALID,1.297,
2019-01-21, 02:55:07,VALID,917.685,VALID,0.0,VALID,98.414,VALID,0.045,VALID,19.818,VALID,107.0,VALID,1.393,
2019-01-21, 02:56:07,VALID,917.692,VALID,0.0,VALID,98.357,VALID,0.035,VALID,19.811,VALID,101.0,VALID,1.057,
2019-01-21, 02:57:07,VALID,917.687,VALID,0.0,VALID,98.356,VALID,-0.005,VALID,19.816,VALID,96.0,VALID,1.13,
2019-01-21, 02:58:07,VALID,917.674,VALID,0.0,VALID,98.325,VALID,0.006,VALID,19.814,VALID,103.0,VALID,1.142,
2019-01-21, 02:59:07,VALID,917.667,VALID,0.0,VALID,98.351,VALID,-0.002,VALID,19.812,VALID,103.0,VALID,1.274,
2019-01-21, 03:00:07,VALID,917.667,VALID,0.0,VALID,98.381,VALID,-0.002,VALID,19.808,VALID,110.0,VALID,1.718,
2019-01-21, 03:01:07,VALID,917.645,VALID,0.0,VALID,98.412,VALID,-0.025,VALID,19.807,VALID,111.0,VALID,1.503,
2019-01-21, 03:02:07,VALID,917.627,VALID,0.0,VALID,98.46,VALID,-0.02,VALID,19.798,VALID,118.0,VALID,1.591,
2019-01-21, 03:03:07,VALID,917.601,VALID,0.0,VALID,98.508,VALID,-0.018,VALID,19.794,VALID,113.0,VALID,1.469,
2019-01-21, 03:04:07,VALID,917.584,VALID,0.0,VALID,98.58,VALID,-0.009,VALID,19.796,VALID,113.0,VALID,1.641,
2019-01-21, 03:05:07,VALID,917.568,VALID,0.0,VALID,98.641,VALID,0.014,VALID,19.798,VALID,108.0,VALID,1.256,
2019-01-21, 03:06:07,VALID,917.567,VALID,0.0,VALID,98.66,VALID,-0.002,VALID,19.8,VALID,113.0,VALID,1.291,
2019-01-21, 03:07:07,VALID,917.547,VALID,0.0,VALID,98.677,VALID,0.006,VALID,19.781,VALID,122.0,VALID,1.622,
2019-01-21, 03:08:07,VALID,917.524,VALID,0.0,VALID,98.683,VALID,-0.005,VALID,19.754,VALID,123.0,VALID,1.561,
2019-01-21, 03:09:07,VALID,917.519,VALID,0.0,VALID,98.728,VALID,0.007,VALID,19.75,VALID,119.0,VALID,1.663,
2019-01-21, 03:10:07,VALID,917.512,VALID,0.0,VALID,98.742,VALID,0.015,VALID,19.75,VALID,113.0,VALID,1.509,
2019-01-21, 03:11:07,VALID,917.503,VALID,0.0,VALID,98.749,VALID,0.003,VALID,19.757,VALID,113.0,VALID,1.464,
2019-01-21, 03:12:07,VALID,917.508,VALID,0.0,VALID,98.755,VALID,0.021,VALID,19.751,VALID,114.0,VALID,1.665,
2019-01-21, 03:13:07,VALID,917.499,VALID,0.0,VALID,98.746,VALID,0.004,VALID,19.749,VALID,107.0,VALID,1.194,
2019-01-21, 03:14:07,VALID,917.489,VALID,0.0,VALID,98.753,VALID,0.001,VALID,19.743,VALID,103.0,VALID,1.045,
2019-01-21, 03:15:07,VALID,917.469,VALID,0.0,VALID,98.762,VALID,-0.011,VALID,19.738,VALID,99.0,VALID,1.074,
2019-01-21, 03:16:07,VALID,917.456,VALID,0.0,VALID,98.769,VALID,0.011,VALID,19.735,VALID,101.0,VALID,0.892,
2019-01-21, 03:17:07,VALID,917.443,VALID,0.0,VALID,98.786,VALID,0.012,VALID,19.728,VALID,93.0,VALID,0.996,
2019-01-21, 03:18:07,VALID,917.448,VALID,0.0,VALID,98.808,VALID,0.008,VALID,19.733,VALID,83.0,VALID,0.767,
2019-01-21, 03:19:07,VALID,917.424,VALID,0.0,VALID,98.808,VALID,0.006,VALID,19.732,VALID,78.0,VALID,0.679,
2019-01-21, 03:20:07,VALID,917.407,VALID,0.0,VALID,98.79,VALID,0.012,VALID,19.726,VALID,83.0,VALID,0.682,
2019-01-21, 03:21:07,VALID,917.407,VALID,0.0,VALID,98.78,VALID,0.005,VALID,19.705,VALID,91.0,VALID,0.711,
2019-01-21, 03:22:07,VALID,917.373,VALID,0.0,VALID,98.759,VALID,0.007,VALID,19.679,VALID,103.0,VALID,0.684,
2019-01-21, 03:23:07,VALID,917.367,VALID,0.0,VALID,98.713,VALID,0.017,VALID,19.669,VALID,110.0,VALID,0.678,
2019-01-21, 03:24:07,VALID,917.376,VALID,0.0,VALID,98.721,VALID,-0.002,VALID,19.659,VALID,106.0,VALID,0.757,
2019-01-21, 03:25:07,VALID,917.362,VALID,0.0,VALID,98.682,VALID,0.015,VALID,19.649,VALID,110.0,VALID,0.869,
2019-01-21, 03:26:07,VALID,917.35,VALID,0.0,VALID,98.667,VALID,-0.003,VALID,19.637,VALID,119.0,VALID,0.88,
2019-01-21, 03:27:07,VALID,917.356,VALID,0.0,VALID,98.68,VALID,0.037,VALID,19.668,VALID,124.0,VALID,0.463,
2019-01-21, 03:28:07,VALID,917.359,VALID,0.0,VALID,98.696,VALID,0.039,VALID,19.69,VALID,118.0,VALID,0.554,
2019-01-21, 03:29:07,VALID,917.369,VALID,0.0,VALID,98.673,VALID,0.038,VALID,19.684,VALID,116.0,VALID,0.599,
2019-01-21, 03:30:07,VALID,917.36,VALID,0.0,VALID,98.665,VALID,0.031,VALID,19.68,VALID,94.0,VALID,0.416,
2019-01-21, 03:31:07,VALID,917.346,VALID,0.0,VALID,98.661,VALID,0.034,VALID,19.67,VALID,88.0,VALID,0.424,
2019-01-21, 03:32:07,VALID,917.351,VALID,0.0,VALID,98.692,VALID,0.042,VALID,19.671,VALID,72.0,VALID,0.771,
2019-01-21, 03:33:07,VALID,917.331,VALID,0.0,VALID,98.664,VALID,0.033,VALID,19.668,VALID,67.0,VALID,0.794,
2019-01-21, 03:34:07,VALID,917.314,VALID,0.0,VALID,98.65,VALID,0.041,VALID,19.66,VALID,66.0,VALID,0.586,
2019-01-21, 03:35:07,VALID,917.315,VALID,0.0,VALID,98.638,VALID,0.052,VALID,19.646,VALID,66.0,VALID,0.476,
2019-01-21, 03:36:07,VALID,917.295,VALID,0.0,VALID,98.588,VALID,0.039,VALID,19.631,VALID,66.0,VALID,0.305,
2019-01-21, 03:37:07,VALID,917.272,VALID,0.0,VALID,98.587,VALID,0.037,VALID,19.626,VALID,73.0,VALID,0.086,
2019-01-21, 03:38:07,VALID,917.284,VALID,0.0,VALID,98.562,VALID,0.062,VALID,19.619,VALID,75.0,VALID,0.004,
2019-01-21, 03:39:07,VALID,917.267,VALID,0.0,VALID,98.573,VALID,0.064,VALID,19.635,VALID,77.0,VALID,0.002,
2019-01-21, 03:40:07,VALID,917.281,VALID,0.0,VALID,98.554,VALID,0.062,VALID,19.63,VALID,83.0,VALID,0.0,
2019-01-21, 03:41:07,VALID,917.284,VALID,0.0,VALID,98.508,VALID,0.053,VALID,19.618,VALID,83.0,VALID,0.0,